EW9362 Weather Reports


Display with metric or nautical units.
time (UTC)temp
F
wind
direction
speed
MPH
gust
MPH
rain 1hr
in
rain 24hr
in
rain mn
in
humidity
%
barometer
mb
20260906193056 84 143 2.0 7.0 0.00 0.00 0.00 63 1013.9
20260906192530 83 57 1.0 9.0 0.00 0.00 0.00 64 1014.0
20260906192027 84 0 1.0 9.0 0.00 0.00 0.00 63 1013.9
20260906191609 85 29 0.0 4.0 0.00 0.00 0.00 63 1014.0
20260906191030 84 136 1.0 4.0 0.00 0.00 0.00 63 1014.1
20260906190527 84 116 0.0 6.0 0.00 0.00 0.00 65 1014.2
20260906190056 83 185 2.0 6.0 0.00 0.00 0.00 65 1014.1
20260906185530 84 75 2.0 7.0 0.00 0.00 0.00 66 1014.2
20260906185028 83 81 1.0 7.0 0.00 0.00 0.00 68 1014.2
20260906184602 83 75 1.0 8.0 0.00 0.00 0.00 68 1014.1
20260906184028 83 85 1.0 8.0 0.00 0.00 0.00 67 1014.2
20260906183529 83 160 2.0 7.0 0.00 0.00 0.00 66 1014.1
20260906183048 83 181 2.0 7.0 0.00 0.00 0.00 70 1014.2
20260906182534 82 108 1.0 6.0 0.00 0.00 0.00 72 1014.3
20260906182030 81 69 0.0 6.0 0.00 0.00 0.00 72 1014.4
20260906181624 82 58 1.0 10.0 0.00 0.00 0.00 72 1014.3
20260906181031 82 302 1.0 10.0 0.00 0.00 0.00 71 1014.4
20260906180529 82 138 3.0 10.0 0.00 0.00 0.00 70 1014.3
20260906180053 82 134 1.0 7.0 0.00 0.00 0.00 71 1014.4
20260906175530 82 136 1.0 5.0 0.00 0.00 0.00 73 1014.4
20260906175030 81 136 1.0 7.0 0.00 0.00 0.00 74 1014.4
20260906174556 81 0 0.0 7.0 0.00 0.00 0.00 75 1014.6
20260906174030 81 0 1.0 9.0 0.00 0.00 0.00 74 1014.7
20260906173530 81 175 2.0 9.0 0.00 0.00 0.00 75 1014.7
20260906173103 81 113 3.0 9.0 0.00 0.00 0.00 74 1014.6
20260906172530 81 149 2.0 9.0 0.00 0.00 0.00 77 1014.6
20260906172027 81 153 2.0 7.0 0.00 0.00 0.00 75 1014.6
20260906171557 80 0 1.0 6.0 0.00 0.00 0.00 77 1014.6
20260906171027 79 99 1.0 6.0 0.00 0.00 0.00 79 1014.7
20260906170530 79 0 1.0 6.0 0.00 0.00 0.00 78 1014.9
20260906170050 79 30 1.0 6.0 0.00 0.00 0.00 78 1014.9
20260906165530 79 156 1.0 5.0 0.00 0.00 0.00 79 1014.8
20260906165028 77 175 0.0 8.0 0.00 0.00 0.00 81 1014.9
20260906164550 76 77 1.0 9.0 0.00 0.00 0.00 84 1015.1
20260906164029 76 15 4.0 9.0 0.00 0.00 0.00 84 1015.2
20260906163528 76 21 1.0 7.0 0.00 0.00 0.00 84 1015.2
20260906163104 76 356 2.0 7.0 0.00 0.00 0.00 84 1015.2
20260906162529 76 38 1.0 7.0 0.00 0.00 0.00 84 1015.2
20260906162029 76 60 2.0 7.0 0.00 0.00 0.00 84 1015.1
20260906161606 77 35 1.0 7.0 0.00 0.00 0.00 84 1015.2
20260906161031 76 0 2.0 8.0 0.00 0.00 0.00 85 1015.2
20260906160527 76 356 3.0 8.0 0.00 0.00 0.00 86 1015.4
20260906160052 76 88 1.0 7.0 0.00 0.00 0.00 86 1015.4
20260906155530 76 62 1.0 4.0 0.00 0.00 0.00 85 1015.4
20260906155030 76 0 0.0 4.0 0.00 0.00 0.00 85 1015.2
20260906154552 76 78 0.0 6.0 0.00 0.00 0.00 85 1015.2
20260906154031 75 15 1.0 6.0 0.00 0.00 0.00 86 1015.1
20260906153532 75 62 1.0 5.0 0.00 0.00 0.00 86 1015.1
20260906153105 75 33 1.0 5.0 0.00 0.00 0.00 86 1015.1
20260906152531 75 101 1.0 5.0 0.00 0.00 0.00 86 1015.1
20260906152031 75 0 2.0 6.0 0.00 0.00 0.00 86 1015.1
20260906151555 75 159 1.0 6.0 0.00 0.00 0.00 86 1015.2
20260906151031 75 178 1.0 5.0 0.00 0.00 0.00 87 1015.1
20260906150530 75 344 1.0 5.0 0.00 0.00 0.00 87 1015.1
20260906150053 74 107 1.0 5.0 0.00 0.00 0.00 87 1014.9
20260906145531 74 0 0.0 3.0 0.00 0.00 0.00 88 1014.9
20260906145031 74 0 0.0 5.0 0.00 0.00 0.00 88 1014.9
20260906144550 74 77 0.0 6.0 0.00 0.00 0.00 89 1014.9
20260906144034 74 0 1.0 6.0 0.00 0.00 0.00 89 1014.9
20260906143528 73 4 1.0 6.0 0.00 0.00 0.00 90 1014.8
20260906143050 73 6 2.0 6.0 0.00 0.00 0.00 90 1014.9
20260906142529 73 165 0.0 7.0 0.00 0.00 0.00 90 1015.0
20260906142031 73 23 1.0 7.0 0.00 0.00 0.00 90 1015.0
20260906141600 73 159 0.0 3.0 0.00 0.00 0.00 90 1015.0
20260906141032 73 128 0.0 4.0 0.00 0.00 0.00 90 1014.7
20260906140530 73 229 0.0 5.0 0.00 0.00 0.00 90 1014.7
20260906140105 73 111 1.0 5.0 0.00 0.00 0.00 90 1014.7
20260906135529 73 138 0.0 4.0 0.00 0.02 0.00 90 1014.8
20260906135029 73 0 0.0 6.0 0.00 0.02 0.00 90 1014.7
20260906134629 73 79 0.0 6.0 0.00 0.02 0.00 90 1014.5
20260906134031 73 0 1.0 5.0 0.00 0.02 0.00 90 1014.4
20260906133532 73 26 0.0 5.0 0.00 0.02 0.00 90 1014.5
20260906133105 74 0 0.0 5.0 0.00 0.02 0.00 90 1014.5
20260906132529 73 357 1.0 7.0 0.00 0.02 0.00 90 1014.6
20260906132030 73 139 0.0 7.0 0.00 0.02 0.00 90 1014.6
20260906131557 73 107 1.0 7.0 0.00 0.02 0.00 90 1014.6
20260906131028 73 169 1.0 5.0 0.00 0.02 0.00 90 1014.5
20260906130533 74 44 1.0 5.0 0.00 0.02 0.00 90 1014.4
20260906130109 74 0 0.0 2.0 0.00 0.02 0.00 90 1014.4
20260906125527 74 0 0.0 1.0 0.00 0.02 0.00 90 1014.4
20260906125029 74 0 0.0 4.0 0.00 0.02 0.00 90 1014.2
20260906124554 74 0 0.0 5.0 0.00 0.02 0.00 91 1014.2
20260906124030 73 0 0.0 5.0 0.00 0.02 0.00 91 1014.1
20260906123530 73 0 1.0 7.0 0.00 0.02 0.00 91 1014.1
20260906123048 73 0 1.0 7.0 0.00 0.02 0.00 91 1014.1
20260906122531 73 100 1.0 7.0 0.00 0.02 0.00 91 1014.1
20260906122033 73 345 1.0 7.0 0.00 0.02 0.00 91 1014.0
20260906121611 73 0 1.0 6.0 0.00 0.02 0.00 91 1013.8
20260906121028 73 0 0.0 6.0 0.00 0.02 0.00 91 1013.8
20260906120529 73 0 0.0 6.0 0.00 0.02 0.00 91 1013.7
20260906120058 73 0 0.0 3.0 0.00 0.02 0.00 91 1013.6
20260906115532 73 89 0.0 3.0 0.00 0.03 0.00 92 1013.5
20260906115030 73 66 0.0 6.0 0.00 0.03 0.00 92 1013.3
20260906114601 73 0 0.0 6.0 0.00 0.03 0.00 92 1013.3
20260906114030 73 65 0.0 5.0 0.00 0.03 0.00 92 1013.2
20260906113533 73 15 0.0 5.0 0.00 0.03 0.00 92 1013.1
20260906113101 73 1 0.0 4.0 0.00 0.03 0.00 92 1013.1
20260906112530 73 34 1.0 4.0 0.00 0.03 0.00 92 1012.9
20260906112029 73 0 1.0 4.0 0.00 0.03 0.00 92 1012.9
20260906111555 73 64 0.0 4.0 0.00 0.03 0.00 92 1012.8
20260906111027 73 34 0.0 4.0 0.00 0.03 0.00 92 1012.8
20260906110529 73 0 1.0 5.0 0.00 0.03 0.00 92 1012.8
20260906110058 73 0 0.0 5.0 0.00 0.03 0.00 92 1012.8
20260906105529 73 58 1.0 6.0 0.00 0.03 0.00 92 1012.7
20260906105028 73 49 0.0 6.0 0.00 0.03 0.00 91 1012.7
20260906104553 73 40 0.0 5.0 0.00 0.03 0.00 91 1012.6
20260906104030 73 89 1.0 5.0 0.00 0.03 0.00 91 1012.6
20260906103529 73 0 0.0 6.0 0.00 0.03 0.00 91 1012.7
20260906103050 73 0 1.0 6.0 0.00 0.03 0.00 91 1012.6
20260906102528 73 47 0.0 4.0 0.00 0.03 0.00 90 1012.5
20260906102029 73 0 0.0 6.0 0.00 0.03 0.00 90 1012.4
20260906101548 73 0 0.0 6.0 0.00 0.03 0.00 90 1012.4
20260906101031 73 0 1.0 6.0 0.00 0.03 0.00 90 1012.5
20260906100529 73 0 0.0 4.0 0.00 0.03 0.00 90 1012.4
20260906100058 73 0 0.0 4.0 0.00 0.03 0.00 90 1012.2
20260906095528 73 0 0.0 4.0 0.00 0.03 0.00 90 1012.2
20260906095028 73 0 0.0 4.0 0.00 0.03 0.00 89 1012.2
20260906094554 73 97 0.0 5.0 0.00 0.03 0.00 89 1012.0
20260906094031 73 0 0.0 5.0 0.00 0.03 0.00 89 1012.1
20260906093529 73 356 0.0 5.0 0.00 0.03 0.00 89 1012.1
20260906093048 73 0 0.0 2.0 0.00 0.03 0.00 90 1012.1
20260906092529 73 0 0.0 1.0 0.00 0.03 0.00 90 1012.0
20260906092029 73 0 0.0 1.0 0.00 0.03 0.00 91 1012.0
20260906091557 73 0 0.0 1.0 0.00 0.03 0.00 90 1011.9
20260906091031 73 0 0.0 1.0 0.00 0.03 0.00 90 1012.0
20260906090529 73 0 0.0 0.0 0.00 0.03 0.00 91 1012.0
20260906090056 73 0 0.0 0.0 0.00 0.03 0.00 90 1011.9
20260906085528 73 0 0.0 0.0 0.00 0.03 0.00 90 1011.8
20260906085028 73 0 0.0 0.0 0.00 0.03 0.00 90 1011.8
20260906084553 73 0 0.0 0.0 0.00 0.03 0.00 90 1011.9
20260906084030 74 0 0.0 0.0 0.00 0.03 0.00 90 1011.9
20260906083528 74 0 0.0 0.0 0.00 0.03 0.00 90 1012.0
20260906083047 74 0 0.0 1.0 0.00 0.03 0.00 90 1012.1
20260906082529 74 0 0.0 1.0 0.00 0.03 0.00 89 1012.0
20260906082029 74 0 0.0 1.0 0.00 0.03 0.00 90 1012.1
20260906081549 74 0 0.0 1.0 0.00 0.03 0.00 89 1011.9
20260906081028 74 0 0.0 1.0 0.00 0.03 0.00 89 1011.9
20260906080530 74 0 0.0 0.0 0.00 0.03 0.00 89 1011.9
20260906080106 74 0 0.0 0.0 0.00 0.03 0.00 89 1011.9
20260906075526 74 0 0.0 0.0 0.00 0.03 0.00 89 1011.8
20260906075030 74 0 0.0 1.0 0.00 0.03 0.00 89 1011.8
20260906074557 74 0 0.0 1.0 0.00 0.03 0.00 88 1011.9
20260906074028 74 0 0.0 1.0 0.00 0.03 0.00 88 1011.8
20260906073531 74 0 0.0 1.0 0.00 0.03 0.00 88 1011.9
20260906073051 75 0 0.0 1.0 0.00 0.03 0.00 87 1011.9
20260906072530 75 0 0.0 1.0 0.00 0.03 0.00 87 1011.9
20260906072028 75 0 0.0 1.0 0.00 0.03 0.00 87 1011.9
20260906071548 75 0 0.0 1.0 0.00 0.03 0.00 86 1011.9
20260906071029 75 0 0.0 2.0 0.00 0.03 0.00 86 1011.9
20260906070532 76 0 0.0 3.0 0.00 0.03 0.00 86 1011.8
20260906070059 76 162 0.0 3.0 0.00 0.03 0.00 86 1011.9
20260906065529 76 0 0.0 3.0 0.00 0.03 0.00 86 1012.0
20260906065029 76 180 1.0 3.0 0.00 0.03 0.00 85 1012.1
20260906064556 76 0 0.0 1.0 0.00 0.03 0.00 85 1012.0
20260906064031 76 0 0.0 1.0 0.00 0.03 0.00 85 1012.1
20260906063528 76 162 0.0 1.0 0.00 0.03 0.00 85 1012.2
20260906063051 76 0 0.0 0.0 0.00 0.03 0.00 85 1012.3
20260906062529 76 0 0.0 2.0 0.00 0.03 0.00 85 1012.2
20260906062031 76 0 0.0 2.0 0.00 0.03 0.00 84 1012.2
20260906061550 76 0 0.0 1.0 0.00 0.03 0.00 84 1012.2
20260906061027 76 0 0.0 1.0 0.00 0.03 0.00 84 1012.1
20260906060529 76 0 0.0 2.0 0.00 0.03 0.00 84 1012.1
20260906060147 76 0 0.0 2.0 0.00 0.03 0.00 84 1012.1
20260906055528 77 117 0.0 2.0 0.00 0.03 0.00 83 1012.1
20260906055028 77 118 0.0 2.0 0.00 0.03 0.00 83 1012.2
20260906054601 77 0 0.0 1.0 0.00 0.03 0.00 83 1012.1
20260906054030 77 0 0.0 1.0 0.00 0.03 0.00 83 1012.1
20260906053530 77 171 0.0 1.0 0.00 0.03 0.00 83 1012.0
20260906053050 77 0 0.0 1.0 0.00 0.03 0.00 84 1012.0
20260906052535 77 0 0.0 1.0 0.00 0.03 0.00 84 1012.1
20260906052030 77 0 0.0 1.0 0.00 0.03 0.00 84 1012.0
20260906051546 77 0 0.0 1.0 0.00 0.03 0.00 83 1012.1
20260906051028 77 0 0.0 2.0 0.00 0.03 0.00 83 1012.1
20260906050527 77 0 0.0 2.0 0.00 0.03 0.00 83 1012.0
20260906050055 78 165 0.0 1.0 0.00 0.03 0.00 83 1012.0
20260906045531 78 0 0.0 1.0 0.00 0.03 0.00 83 1011.9
20260906045031 78 0 0.0 0.0 0.00 0.03 0.00 82 1011.8
20260906044554 78 0 0.0 0.0 0.00 0.03 0.00 81 1011.9
20260906044030 78 0 0.0 1.0 0.00 0.03 0.00 81 1011.9
20260906043526 78 0 0.0 2.0 0.00 0.03 0.00 81 1011.9
20260906043050 78 0 0.0 2.0 0.00 0.03 0.00 81 1012.0
20260906042525 79 191 0.0 1.0 0.00 0.03 0.00 80 1012.0
20260906042026 79 0 0.0 2.0 0.00 0.03 0.00 80 1011.9
20260906041551 79 0 0.0 5.0 0.00 0.03 0.00 80 1011.8
20260906041029 79 0 0.0 5.0 0.00 0.03 0.00 80 1011.8
20260906040528 79 152 0.0 3.0 0.00 0.03 0.00 80 1011.9
20260906040047 79 0 0.0 1.0 0.00 0.03 0.00 80 1011.9
20260906035533 79 0 0.0 1.0 0.00 0.03 0.03 80 1011.7
20260906035029 79 0 0.0 1.0 0.00 0.03 0.03 80 1011.5
20260906034559 79 0 0.0 0.0 0.00 0.03 0.03 80 1011.6
20260906034028 79 192 0.0 2.0 0.00 0.03 0.03 79 1011.5
20260906033527 79 0 0.0 2.0 0.00 0.03 0.03 79 1011.6
20260906033050 78 0 0.0 2.0 0.00 0.03 0.03 79 1011.5
20260906032527 78 0 0.0 0.0 0.00 0.03 0.03 80 1011.5
20260906032031 78 0 0.0 0.0 0.00 0.03 0.03 80 1011.5
20260906031608 78 0 0.0 0.0 0.00 0.03 0.03 80 1011.5
20260906031029 78 0 0.0 0.0 0.00 0.03 0.03 80 1011.4
20260906030528 78 0 0.0 0.0 0.00 0.03 0.03 80 1011.5
20260906030058 78 0 0.0 0.0 0.00 0.03 0.03 79 1011.6
20260906025531 78 0 0.0 0.0 0.00 0.03 0.03 79 1011.6
20260906025031 78 0 0.0 0.0 0.00 0.03 0.03 79 1011.7
20260906024556 79 0 0.0 0.0 0.00 0.03 0.03 78 1011.6
20260906024026 79 0 0.0 0.0 0.00 0.03 0.03 77 1011.6
20260906023526 79 0 0.0 0.0 0.00 0.03 0.03 77 1011.6
20260906023105 79 0 0.0 0.0 0.00 0.03 0.03 77 1011.6
20260906022528 80 0 0.0 0.0 0.00 0.03 0.03 76 1011.5
20260906022029 80 0 0.0 0.0 0.00 0.03 0.03 76 1011.5
20260906021546 80 0 0.0 0.0 0.00 0.03 0.03 76 1011.4
20260906021028 80 0 0.0 0.0 0.00 0.03 0.03 75 1011.4
20260906020531 80 0 0.0 0.0 0.00 0.03 0.03 74 1011.3
20260906020100 80 0 0.0 0.0 0.00 0.03 0.03 74 1011.2
20260906015528 80 0 0.0 0.0 0.00 0.03 0.03 75 1011.1
20260906015028 81 0 0.0 0.0 0.00 0.03 0.03 73 1011.0
20260906014551 81 0 0.0 0.0 0.00 0.03 0.03 73 1011.0
20260906014029 81 0 0.0 0.0 0.00 0.03 0.03 73 1011.0
20260906013532 81 0 0.0 2.0 0.00 0.03 0.03 72 1010.9
20260906013047 81 0 0.0 2.0 0.00 0.03 0.03 72 1010.8
20260906012529 81 152 0.0 2.0 0.00 0.03 0.03 71 1010.7
20260906012029 81 0 0.0 2.0 0.00 0.03 0.03 71 1010.8
20260906011605 82 0 0.0 2.0 0.00 0.03 0.03 70 1010.7
20260906011032 82 0 0.0 3.0 0.00 0.03 0.03 71 1010.6
20260906010529 82 188 0.0 3.0 0.00 0.03 0.03 70 1010.5
20260906010055 82 0 1.0 5.0 0.00 0.03 0.03 69 1010.5
20260906005531 82 181 2.0 5.0 0.00 0.03 0.03 69 1010.5
20260906005029 82 194 1.0 3.0 0.00 0.03 0.03 69 1010.6
20260906004601 82 146 0.0 4.0 0.00 0.03 0.03 68 1010.5
20260906004031 82 150 0.0 4.0 0.00 0.03 0.03 68 1010.4
20260906003529 82 168 1.0 4.0 0.00 0.03 0.03 67 1010.4
20260906003056 82 146 1.0 6.0 0.00 0.03 0.03 66 1010.6
20260906002529 82 166 2.0 7.0 0.00 0.03 0.03 65 1010.7
20260906002031 83 146 2.0 9.0 0.00 0.03 0.03 64 1010.8
20260906001554 83 176 3.0 9.0 0.00 0.03 0.03 65 1011.0
20260906001031 83 162 3.0 6.0 0.00 0.03 0.03 64 1011.0
20260906000531 83 179 2.0 5.0 0.00 0.03 0.03 63 1011.1
20260906000100 84 167 2.0 4.0 0.00 0.03 0.03 63 1011.2
20260905235530 84 192 2.0 5.0 0.00 0.03 0.03 64 1011.3
20260905235033 83 186 1.0 5.0 0.00 0.03 0.03 64 1011.4
20260905234554 83 179 1.0 4.0 0.00 0.03 0.03 64 1011.4
20260905234032 83 155 0.0 3.0 0.00 0.03 0.03 65 1011.3
20260905233530 83 155 0.0 7.0 0.00 0.03 0.03 66 1011.2
20260905233103 84 0 0.0 7.0 0.00 0.03 0.03 65 1011.3
20260905232529 84 131 3.0 8.0 0.00 0.03 0.03 64 1011.3
20260905232034 84 152 4.0 10.0 0.00 0.03 0.03 64 1011.2
20260905231603 85 177 4.0 10.0 0.00 0.03 0.03 63 1011.2
20260905231031 87 161 5.0 10.0 0.00 0.03 0.03 61 1011.1
20260905230531 88 198 2.0 5.0 0.00 0.03 0.03 63 1011.1
20260905230048 89 180 0.0 4.0 0.00 0.03 0.03 62 1011.0
20260905225531 90 179 1.0 5.0 0.00 0.03 0.03 61 1010.9
20260905225032 91 164 1.0 5.0 0.00 0.03 0.03 59 1010.8
20260905224558 91 179 2.0 5.0 0.00 0.03 0.03 57 1010.8
20260905224034 93 0 0.0 4.0 0.00 0.03 0.03 52 1010.8
20260905223529 93 49 1.0 7.0 0.00 0.03 0.03 53 1010.7
20260905223056 93 93 2.0 7.0 0.00 0.03 0.03 53 1010.6
20260905222532 93 63 0.0 2.0 0.00 0.03 0.03 54 1010.6
20260905222033 93 84 0.0 2.0 0.00 0.03 0.03 55 1010.6
20260905221602 93 0 0.0 2.0 0.00 0.03 0.03 55 1010.5
20260905221032 93 70 0.0 2.0 0.00 0.03 0.03 54 1010.5
20260905220531 94 72 0.0 3.0 0.00 0.03 0.03 54 1010.5
20260905220101 94 0 0.0 3.0 0.00 0.03 0.03 53 1010.6
20260905215534 94 0 0.0 5.0 0.00 0.03 0.03 53 1010.6
20260905215028 94 13 1.0 5.0 0.00 0.03 0.03 53 1010.7
20260905214604 93 21 3.0 5.0 0.00 0.03 0.03 53 1010.7
20260905214029 94 347 1.0 5.0 0.00 0.03 0.03 52 1010.8
20260905213532 95 258 1.0 5.0 0.00 0.03 0.03 51 1010.8
20260905213056 96 51 1.0 6.0 0.00 0.03 0.03 51 1010.8
20260905212531 96 355 2.0 6.0 0.00 0.03 0.03 50 1010.7
20260905212028 96 333 0.0 4.0 0.00 0.03 0.03 49 1010.8
20260905211600 95 4 0.0 6.0 0.00 0.03 0.03 50 1010.8
20260905211028 95 48 2.0 6.0 0.00 0.03 0.03 50 1010.7
20260905210527 96 10 0.0 4.0 0.00 0.03 0.03 49 1010.7
20260905210107 96 0 0.0 4.0 0.00 0.03 0.03 48 1010.8
20260905205533 96 360 0.0 4.0 0.00 0.03 0.03 47 1010.9
20260905205029 95 53 0.0 7.0 0.00 0.03 0.03 49 1011.0
20260905204556 94 37 2.0 7.0 0.00 0.03 0.03 50 1011.0
20260905204031 94 40 3.0 7.0 0.00 0.03 0.03 49 1011.2
20260905203531 95 189 0.0 7.0 0.00 0.03 0.03 49 1011.1
20260905203058 94 352 1.0 9.0 0.00 0.03 0.03 50 1011.3
20260905202532 94 351 4.0 9.0 0.00 0.03 0.03 50 1011.3
20260905202030 94 0 1.0 7.0 0.00 0.03 0.03 50 1011.5
20260905201546 93 0 3.0 8.0 0.00 0.03 0.03 50 1011.4
20260905201028 94 34 0.0 8.0 0.00 0.03 0.03 50 1011.5
20260905200530 94 339 0.0 9.0 0.00 0.03 0.03 50 1011.6
20260905200127 93 10 5.0 9.0 0.00 0.03 0.03 51 1011.7
20260905195528 93 8 5.0 7.0 0.00 0.03 0.03 51 1011.7
20260905195031 94 349 0.0 8.0 0.00 0.03 0.03 50 1011.7
20260905194552 93 302 1.0 9.0 0.00 0.03 0.03 51 1011.8
20260905194032 93 349 3.0 9.0 0.00 0.03 0.03 51 1012.0
20260905193530 94 6 1.0 6.0 0.00 0.03 0.03 51 1012.1